COSMOS 2251 DEB

Satellite information

Favourite Embed

Satellite Type and Status

DEBRISIN ORBIT

Key statistics

Satellite COSMOS 2251 DEB at a glance.

Uptime

11711

Days in orbit

Revolutions

≈ 14.5

Per day

Orbit

LEO

Low Earth Orbit

Inclination

74.0

Latest

Satellite identification and parameters

Extended collection of information and parameters for COSMOS 2251 DEB.

Object identification

Identified? True

Debris? True

Object name: COSMOS 2251 DEB

International designator: 1993-036BKC

Object number (NORAD): 37312

Object ID (CCSDS): 37312

Country: COMMONWEALTH OF INDEPENDENT STATES (CIS)

Current information (Y/N): Y

RCS size: SMALL

Orbital parameters

Period: 99.623 minutes

Inclination: 74.0312 deg

SMA: 7118.679 km

Apoapsis: 754.448 km

Periapsis: 726.64 km

RAAN: 141.6796 deg

Eccentricy: 0.0019532

Argument of periapsis: 284.0991 deg

Mean anomaly: 75.7995 deg

Mean motion: 14.45451984 rev/day

Mean motion (dot): 0.00001161 rev/day2

B* drag term: 0.00033637 1/REarth

Two-line elements (TLE)

Creation date: July 6, 2025, 6:05 p.m.

Reference frame: TEME

Reference center: EARTH

Epoch: July 6, 2025, 6:16 a.m. UTC

TLE line 0: 0 COSMOS 2251 DEB

TLE line 1: 1 37312U 93036BKC 25187.26147446 .00001161 00000-0 33637-3 0 9998

TLE line 2: 2 37312 74.0312 141.6796 0019532 284.0991 75.7995 14.45451984838592

Live tracking on map

Real-time ground track for satellite COSMOS 2251 DEB.

In-orbit conjunctions

A list of the most updated potential collisions computed for object COSMOS 2251 DEB.

Target Orbit TCA Probability of collision Miss distance Type
CZ-6A DEB SSO 2024-12-12 23:06:11 0.0001738766 177.0 (m) DEBRIS
FENGYUN 1C DEB SSO 2024-11-11 20:19:36 0.0004178387 144.0 (m) DEBRIS

Associated space launch

Military communications satellite. Destroyed in a collision with Iridium 33.

COSMOS 2251 DEB was lifted into orbit during the mission ‘Kosmos-3M | Strela-2M 51’, on board a Kosmos-3M space rocket.

The launch took place on June 16, 1993, 4:17 a.m. from 132/1 (132L).

For more information about the launch, click the button.

Launch to space Kosmos-3M | Strela-2M 51
Kosmos-3M | Strela-2M 51

Agency: N/A

Status: Launch Successful

Launch date: June 16, 1993, 4:17 a.m. UTC

Rocket: Kosmos-3M

Launch pad: 132/1 (132L)

Location: Plesetsk Cosmodrome, Russian Federation

...

Latest news about this satellite

There are no fresh news available about this satellite. Check back as we update our databases every day.


Newsletter sign-up

Weekly statistics, charts and insights to help you stay on top of the space industry.